Time,TemperatureF,DewpointF,PressureIn,WindDirection,WindDirectionDegrees,WindSpeedMPH,WindSpeedGustMPH,Humidity,HourlyPrecipIn,Conditions,Clouds,dailyrainin,SoftwareType,DateUTC
2013-02-26 00:01:00,29.5,20.9,28.29,WSW,248,0.0,0.0,70,0.00,,---,0.00,VWS V14.01,2013-02-26 08:01:00,
2013-02-26 00:06:00,29.1,20.9,28.29,SSW,202,0.0,0.0,71,0.00,,---,0.00,VWS V14.01,2013-02-26 08:06:00,
2013-02-26 00:11:00,29.3,21.7,28.29,SW,225,0.0,0.0,73,0.00,,---,0.00,VWS V14.01,2013-02-26 08:11:00,
2013-02-26 00:16:00,29.1,21.6,28.29,WSW,248,0.0,1.1,73,0.00,,---,0.00,VWS V14.01,2013-02-26 08:16:00,
2013-02-26 00:21:00,29.1,21.9,28.29,SSE,158,1.6,1.6,74,0.00,,---,0.00,VWS V14.01,2013-02-26 08:21:00,
2013-02-26 00:26:00,28.6,21.4,28.29,SSW,202,0.0,0.0,74,0.00,,---,0.00,VWS V14.01,2013-02-26 08:26:00,
2013-02-26 00:31:00,28.0,20.8,28.29,SSW,202,0.0,0.0,74,0.00,,---,0.00,VWS V14.01,2013-02-26 08:31:00,
2013-02-26 00:36:00,27.9,21.0,28.29,SW,225,0.0,1.1,75,0.00,,---,0.00,VWS V14.01,2013-02-26 08:36:00,
2013-02-26 00:41:00,27.9,21.0,28.29,NW,315,0.0,0.9,75,0.00,,---,0.00,VWS V14.01,2013-02-26 08:41:00,
2013-02-26 00:46:00,27.5,20.9,28.29,SW,225,0.0,0.0,76,0.00,,---,0.00,VWS V14.01,2013-02-26 08:46:00,
2013-02-26 00:51:00,27.3,21.1,28.29,NNE,22,0.0,0.0,77,0.00,,---,0.00,VWS V14.01,2013-02-26 08:51:00,
2013-02-26 00:56:00,27.1,20.9,28.29,WSW,248,1.1,1.1,77,0.00,,---,0.00,VWS V14.01,2013-02-26 08:56:00,
2013-02-26 01:01:00,27.0,20.7,28.32,West,270,1.6,2.2,77,0.00,,---,0.00,VWS V14.01,2013-02-26 09:01:00,
2013-02-26 01:06:00,27.0,21.0,28.32,NNE,22,0.0,0.0,78,0.00,,---,0.00,VWS V14.01,2013-02-26 09:06:00,
2013-02-26 01:11:00,26.6,20.4,28.32,NNW,338,0.0,0.0,77,0.00,,---,0.00,VWS V14.01,2013-02-26 09:11:00,
2013-02-26 01:16:00,26.4,20.2,28.32,SSW,202,0.0,0.0,77,0.00,,---,0.00,VWS V14.01,2013-02-26 09:16:00,
2013-02-26 01:21:00,26.1,20.1,28.32,SSW,202,0.0,0.0,78,0.00,,---,0.00,VWS V14.01,2013-02-26 09:21:00,
2013-02-26 01:26:00,26.2,20.3,28.32,WSW,248,0.0,0.0,78,0.00,,---,0.00,VWS V14.01,2013-02-26 09:26:00,
2013-02-26 01:31:00,26.1,20.1,28.32,WSW,248,0.0,0.0,78,0.00,,---,0.00,VWS V14.01,2013-02-26 09:31:00,
2013-02-26 01:36:00,26.1,20.5,28.32,West,270,0.0,0.0,79,0.00,,---,0.00,VWS V14.01,2013-02-26 09:36:00,
2013-02-26 01:41:00,26.2,20.6,28.32,West,270,0.0,0.0,79,0.00,,---,0.00,VWS V14.01,2013-02-26 09:41:00,
2013-02-26 01:46:00,26.4,20.8,28.32,NNE,22,0.0,0.0,79,0.00,,---,0.00,VWS V14.01,2013-02-26 09:46:00,
2013-02-26 01:51:00,26.4,20.8,28.32,NNE,22,0.0,0.0,79,0.00,,---,0.00,VWS V14.01,2013-02-26 09:51:00,
2013-02-26 01:56:00,26.6,21.3,28.32,West,270,0.0,0.0,80,0.00,,---,0.00,VWS V14.01,2013-02-26 09:56:00,
2013-02-26 02:01:00,26.4,21.1,28.32,West,270,0.0,0.0,80,0.00,,---,0.00,VWS V14.01,2013-02-26 10:01:00,
2013-02-26 02:06:00,26.4,20.8,28.32,West,270,0.0,0.0,79,0.00,,---,0.00,VWS V14.01,2013-02-26 10:06:00,
2013-02-26 02:11:00,26.6,21.3,28.32,West,270,0.0,0.0,80,0.00,,---,0.00,VWS V14.01,2013-02-26 10:11:00,
2013-02-26 02:16:00,26.6,21.3,28.32,West,270,0.0,0.0,80,0.00,,---,0.00,VWS V14.01,2013-02-26 10:16:00,
2013-02-26 02:21:00,26.8,21.5,28.32,WSW,248,0.0,0.0,80,0.00,,---,0.00,VWS V14.01,2013-02-26 10:21:00,
2013-02-26 02:26:00,26.8,21.5,28.32,NE,45,0.0,0.0,80,0.00,,---,0.00,VWS V14.01,2013-02-26 10:26:00,
2013-02-26 02:31:00,26.6,21.3,28.35,NE,45,0.0,0.0,80,0.00,,---,0.00,VWS V14.01,2013-02-26 10:31:00,
2013-02-26 02:36:00,26.4,21.1,28.35,NE,45,0.0,0.0,80,0.00,,---,0.00,VWS V14.01,2013-02-26 10:36:00,
2013-02-26 02:41:00,26.1,20.8,28.35,SSE,158,0.0,0.0,80,0.00,,---,0.00,VWS V14.01,2013-02-26 10:41:00,
2013-02-26 02:46:00,26.4,21.4,28.35,ESE,112,0.0,0.0,81,0.00,,---,0.00,VWS V14.01,2013-02-26 10:46:00,
2013-02-26 02:51:00,26.2,21.2,28.35,South,180,0.0,0.0,81,0.00,,---,0.00,VWS V14.01,2013-02-26 10:51:00,
2013-02-26 02:56:00,26.2,21.2,28.35,NNW,338,0.0,0.0,81,0.00,,---,0.00,VWS V14.01,2013-02-26 10:56:00,
2013-02-26 03:01:00,26.2,21.2,28.35,SW,225,0.0,0.0,81,0.00,,---,0.00,VWS V14.01,2013-02-26 11:01:00,
2013-02-26 03:06:00,26.4,21.7,28.35,NNE,22,0.9,1.6,82,0.00,,---,0.00,VWS V14.01,2013-02-26 11:06:00,
2013-02-26 03:11:00,26.1,21.0,28.35,NNE,22,0.0,0.0,81,0.00,,---,0.00,VWS V14.01,2013-02-26 11:11:00,
2013-02-26 03:16:00,26.1,21.0,28.35,WNW,292,1.1,1.1,81,0.00,,---,0.00,VWS V14.01,2013-02-26 11:16:00,
2013-02-26 03:21:00,26.4,21.7,28.35,NNE,22,0.9,1.3,82,0.00,,---,0.00,VWS V14.01,2013-02-26 11:21:00,
2013-02-26 03:26:00,26.2,21.5,28.35,East,90,0.0,0.0,82,0.00,,---,0.00,VWS V14.01,2013-02-26 11:26:00,
2013-02-26 03:31:00,26.4,21.7,28.35,SW,225,2.0,2.2,82,0.00,,---,0.00,VWS V14.01,2013-02-26 11:31:00,
2013-02-26 03:36:00,26.6,21.9,28.35,North,0,0.0,0.0,82,0.00,,---,0.00,VWS V14.01,2013-02-26 11:36:00,
2013-02-26 03:41:00,26.6,22.1,28.35,NNW,338,0.0,0.0,83,0.00,,---,0.00,VWS V14.01,2013-02-26 11:41:00,
2013-02-26 03:46:00,26.8,22.0,28.35,NNE,22,0.0,0.0,82,0.00,,---,0.00,VWS V14.01,2013-02-26 11:46:00,
2013-02-26 03:51:00,26.4,21.7,28.35,NNW,338,0.0,0.0,82,0.00,,---,0.00,VWS V14.01,2013-02-26 11:51:00,
2013-02-26 03:56:00,26.2,21.2,28.35,NNW,338,0.0,0.0,81,0.00,,---,0.00,VWS V14.01,2013-02-26 11:56:00,
2013-02-26 04:01:00,26.6,21.9,28.35,WSW,248,0.0,0.0,82,0.00,,---,0.00,VWS V14.01,2013-02-26 12:01:00,
2013-02-26 04:06:00,26.8,22.0,28.35,WSW,248,0.0,0.0,82,0.00,,---,0.00,VWS V14.01,2013-02-26 12:06:00,
2013-02-26 04:11:00,26.6,21.9,28.35,WSW,248,0.0,0.0,82,0.00,,---,0.00,VWS V14.01,2013-02-26 12:11:00,
2013-02-26 04:16:00,26.6,21.9,28.35,WSW,248,0.0,0.0,82,0.00,,---,0.00,VWS V14.01,2013-02-26 12:16:00,
2013-02-26 04:21:00,26.6,21.9,28.35,WSW,248,0.0,0.0,82,0.00,,---,0.00,VWS V14.01,2013-02-26 12:21:00,
2013-02-26 04:26:00,26.8,22.0,28.35,WSW,248,0.0,0.0,82,0.00,,---,0.00,VWS V14.01,2013-02-26 12:26:00,
2013-02-26 04:31:00,26.4,21.7,28.38,WSW,248,0.0,0.0,82,0.00,,---,0.00,VWS V14.01,2013-02-26 12:31:00,
2013-02-26 04:37:00,26.4,21.7,28.38,WSW,248,0.0,0.0,82,0.00,,---,0.00,VWS V14.01,2013-02-26 12:37:00,
2013-02-26 04:42:00,26.4,21.7,28.38,WSW,248,0.0,0.0,82,0.00,,---,0.00,VWS V14.01,2013-02-26 12:42:00,
2013-02-26 04:47:00,26.2,21.5,28.38,WSW,248,0.0,0.0,82,0.00,,---,0.00,VWS V14.01,2013-02-26 12:47:00,
2013-02-26 04:52:00,26.4,22.2,28.38,WNW,292,0.0,0.0,84,0.00,,---,0.00,VWS V14.01,2013-02-26 12:52:00,
2013-02-26 04:57:00,26.6,22.4,28.38,ENE,68,0.0,0.0,84,0.00,,---,0.00,VWS V14.01,2013-02-26 12:57:00,
2013-02-26 05:03:00,26.4,22.2,28.38,WNW,292,0.0,0.0,84,0.00,,---,0.00,VWS V14.01,2013-02-26 13:03:00,
2013-02-26 05:08:00,26.4,22.0,28.38,WNW,292,0.0,0.0,83,0.00,,---,0.00,VWS V14.01,2013-02-26 13:08:00,
2013-02-26 05:13:00,26.4,22.2,28.38,North,0,0.0,0.0,84,0.00,,---,0.00,VWS V14.01,2013-02-26 13:13:00,
2013-02-26 05:18:00,26.2,21.8,28.38,NNW,338,0.0,0.0,83,0.00,,---,0.00,VWS V14.01,2013-02-26 13:18:00,
2013-02-26 05:24:00,26.2,21.8,28.38,NNW,338,0.0,0.0,83,0.00,,---,0.00,VWS V14.01,2013-02-26 13:24:00,
2013-02-26 05:29:00,26.1,21.6,28.38,NNW,338,0.0,0.0,83,0.00,,---,0.00,VWS V14.01,2013-02-26 13:29:00,
2013-02-26 05:34:00,26.1,21.9,28.38,NNW,338,0.0,0.0,84,0.00,,---,0.00,VWS V14.01,2013-02-26 13:34:00,
2013-02-26 05:39:00,26.1,21.9,28.38,NNW,338,0.0,0.0,84,0.00,,---,0.00,VWS V14.01,2013-02-26 13:39:00,
2013-02-26 05:44:00,25.9,21.7,28.38,NNW,338,0.0,0.0,84,0.00,,---,0.00,VWS V14.01,2013-02-26 13:44:00,
2013-02-26 05:49:00,25.5,21.4,28.38,NNW,338,0.0,0.0,84,0.00,,---,0.00,VWS V14.01,2013-02-26 13:49:00,
2013-02-26 05:54:00,25.3,21.2,28.38,NNW,338,0.0,0.0,84,0.00,,---,0.00,VWS V14.01,2013-02-26 13:54:00,
2013-02-26 05:59:00,25.3,21.2,28.38,NNW,338,0.0,0.0,84,0.00,,---,0.00,VWS V14.01,2013-02-26 13:59:00,
2013-02-26 06:04:00,25.3,21.2,28.38,NNW,338,0.0,0.0,84,0.00,,---,0.00,VWS V14.01,2013-02-26 14:04:00,
2013-02-26 06:09:00,25.3,21.2,28.38,NNW,338,0.0,0.0,84,0.00,,---,0.00,VWS V14.01,2013-02-26 14:09:00,
2013-02-26 06:14:00,25.3,21.5,28.38,NNW,338,0.0,0.0,85,0.00,,---,0.00,VWS V14.01,2013-02-26 14:14:00,
2013-02-26 06:19:00,25.5,21.6,28.38,NNW,338,0.0,0.0,85,0.00,,---,0.00,VWS V14.01,2013-02-26 14:19:00,
2013-02-26 06:24:00,25.3,21.5,28.38,NNW,338,0.0,0.0,85,0.00,,---,0.00,VWS V14.01,2013-02-26 14:24:00,
2013-02-26 06:29:00,25.3,21.5,28.38,NNW,338,0.0,0.0,85,0.00,,---,0.00,VWS V14.01,2013-02-26 14:29:00,
2013-02-26 06:34:00,25.3,21.8,28.38,NNW,338,0.0,0.0,86,0.00,,---,0.00,VWS V14.01,2013-02-26 14:34:00,
2013-02-26 06:39:00,25.2,21.6,28.38,NNW,338,0.0,0.0,86,0.00,,---,0.00,VWS V14.01,2013-02-26 14:39:00,
2013-02-26 06:44:00,25.2,21.6,28.41,NNW,338,0.0,0.0,86,0.00,,---,0.00,VWS V14.01,2013-02-26 14:44:00,
2013-02-26 06:49:00,24.8,21.2,28.41,NNW,338,0.0,0.0,86,0.00,,---,0.00,VWS V14.01,2013-02-26 14:49:00,
2013-02-26 06:54:00,24.8,21.2,28.41,NNW,338,0.0,0.0,86,0.00,,---,0.00,VWS V14.01,2013-02-26 14:54:00,
2013-02-26 06:59:00,25.0,21.4,28.38,NNW,338,0.0,0.0,86,0.00,,---,0.00,VWS V14.01,2013-02-26 14:59:00,
2013-02-26 07:04:00,25.0,21.7,28.38,NNW,338,0.0,0.0,87,0.00,,---,0.00,VWS V14.01,2013-02-26 15:04:00,
2013-02-26 07:09:00,25.3,22.0,28.38,NNW,338,0.0,0.0,87,0.00,,---,0.00,VWS V14.01,2013-02-26 15:09:00,
2013-02-26 07:14:00,25.7,22.4,28.38,NNW,338,0.0,0.0,87,0.00,,---,0.00,VWS V14.01,2013-02-26 15:14:00,
2013-02-26 07:19:00,26.1,23.0,28.38,NNW,338,0.0,0.0,88,0.00,,---,0.00,VWS V14.01,2013-02-26 15:19:00,
2013-02-26 07:24:00,26.6,23.5,28.38,NNW,338,0.0,0.0,88,0.00,,---,0.00,VWS V14.01,2013-02-26 15:24:00,
2013-02-26 07:29:00,27.5,24.1,28.38,SW,225,1.1,1.1,87,0.00,,---,0.00,VWS V14.01,2013-02-26 15:29:00,
2013-02-26 07:34:00,28.0,24.7,28.38,SW,225,1.3,2.0,87,0.00,,---,0.00,VWS V14.01,2013-02-26 15:34:00,
2013-02-26 07:39:00,28.6,24.9,28.38,SW,225,0.0,0.0,86,0.00,,---,0.00,VWS V14.01,2013-02-26 15:39:00,
2013-02-26 07:44:00,28.9,25.0,28.41,SSE,158,0.0,0.0,85,0.00,,---,0.00,VWS V14.01,2013-02-26 15:44:00,
2013-02-26 07:49:00,29.5,25.2,28.41,SW,225,0.9,0.9,84,0.00,,---,0.00,VWS V14.01,2013-02-26 15:49:00,
2013-02-26 07:54:00,30.2,25.1,28.41,South,180,2.0,2.2,81,0.00,,---,0.00,VWS V14.01,2013-02-26 15:54:00,
2013-02-26 07:59:00,30.6,25.1,28.41,SSW,202,0.0,0.0,80,0.00,,---,0.00,VWS V14.01,2013-02-26 15:59:00,
2013-02-26 08:04:00,30.9,25.2,28.41,SSW,202,0.0,0.0,79,0.00,,---,0.00,VWS V14.01,2013-02-26 16:04:00,
2013-02-26 08:09:00,31.6,25.9,28.41,SSW,202,0.0,0.0,79,0.00,,---,0.00,VWS V14.01,2013-02-26 16:09:00,
2013-02-26 08:14:00,32.5,26.8,28.41,SSW,202,0.0,0.0,79,0.00,,---,0.00,VWS V14.01,2013-02-26 16:14:00,
2013-02-26 08:19:00,32.7,26.6,28.41,SSW,202,0.0,0.0,78,0.00,,---,0.00,VWS V14.01,2013-02-26 16:19:00,
2013-02-26 08:24:00,33.3,26.8,28.41,SSW,202,0.0,0.0,77,0.00,,---,0.00,VWS V14.01,2013-02-26 16:24:00,
2013-02-26 08:29:00,33.6,27.2,28.41,SSW,202,0.0,0.0,77,0.00,,---,0.00,VWS V14.01,2013-02-26 16:29:00,
2013-02-26 08:34:00,34.0,27.2,28.41,SSW,202,0.0,0.0,76,0.00,,---,0.00,VWS V14.01,2013-02-26 16:34:00,
2013-02-26 08:39:00,34.9,27.8,28.41,SSW,202,0.0,0.0,75,0.00,,---,0.00,VWS V14.01,2013-02-26 16:39:00,
2013-02-26 08:45:00,35.4,28.0,28.41,SSW,202,0.0,0.0,74,0.00,,---,0.00,VWS V14.01,2013-02-26 16:45:00,
2013-02-26 08:49:00,36.1,28.0,28.41,SSW,202,0.0,0.0,72,0.00,,---,0.00,VWS V14.01,2013-02-26 16:49:00,
2013-02-26 08:55:00,36.3,28.2,28.41,SSW,202,0.0,0.0,72,0.00,,---,0.00,VWS V14.01,2013-02-26 16:55:00,
2013-02-26 09:00:00,37.2,28.0,28.41,SSW,202,0.0,0.0,69,0.00,,---,0.00,VWS V14.01,2013-02-26 17:00:00,
2013-02-26 09:05:00,38.1,28.5,28.41,SSW,202,0.0,0.0,68,0.00,,---,0.00,VWS V14.01,2013-02-26 17:05:00,
2013-02-26 09:10:00,38.5,29.2,28.41,SSW,202,0.0,0.0,69,0.00,,---,0.00,VWS V14.01,2013-02-26 17:10:00,
2013-02-26 09:15:00,39.4,28.6,28.41,SSW,202,0.0,0.0,65,0.00,,---,0.00,VWS V14.01,2013-02-26 17:15:00,
2013-02-26 09:20:00,39.4,27.9,28.41,SSW,202,0.0,0.0,63,0.00,,---,0.00,VWS V14.01,2013-02-26 17:20:00,
2013-02-26 09:25:00,39.0,25.5,28.41,ESE,112,0.9,1.6,58,0.00,,---,0.00,VWS V14.01,2013-02-26 17:25:00,
2013-02-26 09:30:00,39.7,26.2,28.41,South,180,0.0,0.0,58,0.00,,---,0.00,VWS V14.01,2013-02-26 17:30:00,
2013-02-26 09:35:00,41.0,28.2,28.41,South,180,0.0,0.0,60,0.00,,---,0.00,VWS V14.01,2013-02-26 17:35:00,
2013-02-26 09:40:00,41.2,24.0,28.41,SSE,158,1.6,2.9,50,0.00,,---,0.00,VWS V14.01,2013-02-26 17:40:00,
2013-02-26 09:45:00,42.1,26.2,28.41,North,0,0.9,0.9,53,0.00,,---,0.00,VWS V14.01,2013-02-26 17:45:00,
2013-02-26 09:50:00,42.6,27.6,28.41,WSW,248,1.1,1.1,55,0.00,,---,0.00,VWS V14.01,2013-02-26 17:50:00,
2013-02-26 09:55:00,43.0,27.5,28.41,SW,225,0.0,0.0,54,0.00,,---,0.00,VWS V14.01,2013-02-26 17:55:00,
2013-02-26 10:00:00,43.9,27.4,28.41,ESE,112,0.9,0.9,52,0.00,,---,0.00,VWS V14.01,2013-02-26 18:00:00,
2013-02-26 10:05:00,44.4,27.4,28.41,SSE,158,0.9,1.6,51,0.00,,---,0.00,VWS V14.01,2013-02-26 18:05:00,
2013-02-26 10:10:00,45.7,27.1,28.41,SSE,158,0.0,0.0,48,0.00,,---,0.00,VWS V14.01,2013-02-26 18:10:00,
2013-02-26 10:15:00,45.9,26.8,28.41,ESE,112,0.0,0.0,47,0.00,,---,0.00,VWS V14.01,2013-02-26 18:15:00,
2013-02-26 10:20:00,46.8,26.6,28.41,SW,225,0.0,0.0,45,0.00,,---,0.00,VWS V14.01,2013-02-26 18:20:00,
2013-02-26 10:25:00,49.3,28.3,28.41,WSW,248,0.0,0.0,44,0.00,,---,0.00,VWS V14.01,2013-02-26 18:25:00,
2013-02-26 10:30:00,50.2,28.6,28.38,SE,135,2.7,2.9,43,0.00,,---,0.00,VWS V14.01,2013-02-26 18:30:00,
2013-02-26 10:35:00,50.2,24.9,28.38,ENE,68,2.7,2.9,37,0.00,,---,0.00,VWS V14.01,2013-02-26 18:35:00,
2013-02-26 10:40:00,49.5,23.0,28.38,ESE,112,2.5,2.5,35,0.00,,---,0.00,VWS V14.01,2013-02-26 18:40:00,
2013-02-26 10:45:00,49.8,21.9,28.38,ESE,112,3.8,4.0,33,0.00,,---,0.00,VWS V14.01,2013-02-26 18:45:00,
2013-02-26 10:50:00,49.1,21.3,28.38,SE,135,0.0,3.4,33,0.00,,---,0.00,VWS V14.01,2013-02-26 18:50:00,
2013-02-26 10:55:00,49.3,21.4,28.38,WNW,292,3.6,3.6,33,0.00,,---,0.00,VWS V14.01,2013-02-26 18:55:00,
2013-02-26 11:00:00,48.7,19.5,28.38,NNE,22,2.5,2.5,31,0.00,,---,0.00,VWS V14.01,2013-02-26 19:00:00,
2013-02-26 11:05:00,48.4,20.6,28.38,SSE,158,2.9,2.9,33,0.00,,---,0.00,VWS V14.01,2013-02-26 19:05:00,
2013-02-26 11:10:00,48.2,21.9,28.38,SE,135,0.0,0.0,35,0.00,,---,0.00,VWS V14.01,2013-02-26 19:10:00,
2013-02-26 11:15:00,48.6,23.5,28.38,SSW,202,0.0,0.0,37,0.00,,---,0.00,VWS V14.01,2013-02-26 19:15:00,
2013-02-26 11:20:00,48.0,23.6,28.38,NNE,22,0.0,0.0,38,0.00,,---,0.00,VWS V14.01,2013-02-26 19:20:00,
2013-02-26 11:25:00,47.8,22.9,28.38,South,180,0.0,0.9,37,0.00,,---,0.00,VWS V14.01,2013-02-26 19:25:00,
2013-02-26 11:30:00,48.4,24.0,28.38,South,180,0.0,0.0,38,0.00,,---,0.00,VWS V14.01,2013-02-26 19:30:00,
2013-02-26 11:35:00,48.6,23.5,28.38,ESE,112,0.0,1.6,37,0.00,,---,0.00,VWS V14.01,2013-02-26 19:35:00,
2013-02-26 11:40:00,48.6,23.5,28.38,NE,45,1.6,2.2,37,0.00,,---,0.00,VWS V14.01,2013-02-26 19:40:00,
2013-02-26 11:45:00,50.2,24.3,28.38,WSW,248,0.0,0.0,36,0.00,,---,0.00,VWS V14.01,2013-02-26 19:45:00,
2013-02-26 11:50:00,51.6,24.9,28.38,East,90,1.1,1.6,35,0.00,,---,0.00,VWS V14.01,2013-02-26 19:50:00,
2013-02-26 11:55:00,50.5,22.5,28.38,SSE,158,0.0,1.1,33,0.00,,---,0.00,VWS V14.01,2013-02-26 19:55:00,
2013-02-26 12:00:00,50.9,24.9,28.38,South,180,0.0,0.0,36,0.00,,---,0.00,VWS V14.01,2013-02-26 20:00:00,
2013-02-26 12:05:00,50.2,24.3,28.38,SSW,202,2.5,2.5,36,0.00,,---,0.00,VWS V14.01,2013-02-26 20:05:00,
2013-02-26 12:10:00,50.0,22.0,28.38,SW,225,0.0,2.5,33,0.00,,---,0.00,VWS V14.01,2013-02-26 20:10:00,
2013-02-26 12:15:00,49.6,23.8,28.38,SSW,202,0.0,0.0,36,0.00,,---,0.00,VWS V14.01,2013-02-26 20:15:00,
2013-02-26 12:20:00,49.3,23.5,28.38,WSW,248,0.0,0.0,36,0.00,,---,0.00,VWS V14.01,2013-02-26 20:20:00,
2013-02-26 12:25:00,49.5,23.0,28.38,SSW,202,0.9,3.4,35,0.00,,---,0.00,VWS V14.01,2013-02-26 20:25:00,
2013-02-26 12:30:00,49.5,23.0,28.38,NE,45,0.0,2.5,35,0.00,,---,0.00,VWS V14.01,2013-02-26 20:30:00,
2013-02-26 12:35:00,49.8,24.6,28.38,West,270,1.6,1.6,37,0.00,,---,0.00,VWS V14.01,2013-02-26 20:35:00,
2013-02-26 12:40:00,49.6,21.7,28.38,West,270,0.0,0.0,33,0.00,,---,0.00,VWS V14.01,2013-02-26 20:40:00,
2013-02-26 12:45:00,49.1,19.8,28.38,South,180,3.6,3.6,31,0.00,,---,0.00,VWS V14.01,2013-02-26 20:45:00,
2013-02-26 12:50:00,50.2,23.6,28.38,WSW,248,0.0,0.0,35,0.00,,---,0.00,VWS V14.01,2013-02-26 20:50:00,
2013-02-26 12:55:00,51.6,24.2,28.38,North,0,3.6,3.8,34,0.00,,---,0.00,VWS V14.01,2013-02-26 20:55:00,
2013-02-26 13:00:00,53.8,25.4,28.35,NNE,22,0.0,0.0,33,0.00,,---,0.00,VWS V14.01,2013-02-26 21:00:00,
2013-02-26 13:05:00,53.2,24.2,28.35,SW,225,0.0,2.0,32,0.00,,---,0.00,VWS V14.01,2013-02-26 21:05:00,
2013-02-26 13:10:00,54.5,26.0,28.35,SW,225,0.0,1.3,33,0.00,,---,0.00,VWS V14.01,2013-02-26 21:10:00,
2013-02-26 13:15:00,53.4,23.6,28.38,WSW,248,0.0,1.3,31,0.00,,---,0.00,VWS V14.01,2013-02-26 21:15:00,
2013-02-26 13:20:00,52.9,21.5,28.38,SSW,202,2.2,3.8,29,0.00,,---,0.00,VWS V14.01,2013-02-26 21:20:00,
2013-02-26 13:25:00,52.0,20.7,28.38,WNW,292,1.6,3.1,29,0.00,,---,0.00,VWS V14.01,2013-02-26 21:25:00,
2013-02-26 13:30:00,50.2,21.5,28.35,ENE,68,0.0,1.1,32,0.00,,---,0.00,VWS V14.01,2013-02-26 21:30:00,
2013-02-26 13:35:00,49.8,21.2,28.35,SSE,158,2.2,3.1,32,0.00,,---,0.00,VWS V14.01,2013-02-26 21:35:00,
2013-02-26 13:40:00,49.5,22.3,28.35,WSW,248,2.0,2.5,34,0.00,,---,0.00,VWS V14.01,2013-02-26 21:40:00,
2013-02-26 13:45:00,49.8,21.9,28.38,West,270,0.0,0.0,33,0.00,,---,0.00,VWS V14.01,2013-02-26 21:45:00,
2013-02-26 13:50:00,49.6,21.7,28.38,SSW,202,1.6,2.5,33,0.00,,---,0.00,VWS V14.01,2013-02-26 21:50:00,
2013-02-26 13:55:00,48.4,20.6,28.38,WSW,248,0.0,0.0,33,0.00,,---,0.00,VWS V14.01,2013-02-26 21:55:00,
2013-02-26 14:00:00,47.3,20.4,28.35,WNW,292,2.0,2.0,34,0.00,,---,0.00,VWS V14.01,2013-02-26 22:00:00,
2013-02-26 14:05:00,46.0,21.2,28.35,SW,225,1.1,2.5,37,0.00,,---,0.00,VWS V14.01,2013-02-26 22:05:00,
2013-02-26 14:10:00,45.1,21.1,28.35,WSW,248,2.9,3.1,38,0.00,,---,0.00,VWS V14.01,2013-02-26 22:10:00,
2013-02-26 14:15:00,45.1,21.1,28.35,WSW,248,0.0,2.9,38,0.00,,---,0.00,VWS V14.01,2013-02-26 22:15:00,
2013-02-26 14:20:00,44.6,21.2,28.35,WSW,248,2.9,2.9,39,0.00,,---,0.00,VWS V14.01,2013-02-26 22:20:00,
2013-02-26 14:25:00,44.6,21.2,28.35,WSW,248,3.4,3.4,39,0.00,,---,0.00,VWS V14.01,2013-02-26 22:25:00,
2013-02-26 14:30:00,44.6,21.8,28.35,SW,225,1.6,1.6,40,0.00,,---,0.00,VWS V14.01,2013-02-26 22:30:00,
2013-02-26 14:35:00,44.4,22.2,28.35,WSW,248,2.5,2.5,41,0.00,,---,0.00,VWS V14.01,2013-02-26 22:35:00,
2013-02-26 14:40:00,44.8,22.0,28.35,SW,225,1.3,1.3,40,0.00,,---,0.00,VWS V14.01,2013-02-26 22:40:00,
2013-02-26 14:45:00,45.0,22.1,28.35,SW,225,1.6,1.6,40,0.00,,---,0.00,VWS V14.01,2013-02-26 22:45:00,
2013-02-26 14:50:00,44.8,22.5,28.35,WSW,248,0.0,0.0,41,0.00,,---,0.00,VWS V14.01,2013-02-26 22:50:00,
2013-02-26 14:55:00,44.4,22.8,28.35,WSW,248,1.3,2.7,42,0.00,,---,0.00,VWS V14.01,2013-02-26 22:55:00,
2013-02-26 15:00:00,45.3,23.0,28.32,WSW,248,0.0,0.0,41,0.00,,---,0.00,VWS V14.01,2013-02-26 23:00:00,
2013-02-26 15:05:00,44.8,23.1,28.32,WSW,248,1.1,1.6,42,0.00,,---,0.00,VWS V14.01,2013-02-26 23:05:00,
2013-02-26 15:10:00,44.6,22.9,28.32,SW,225,0.0,0.0,42,0.00,,---,0.00,VWS V14.01,2013-02-26 23:10:00,
2013-02-26 15:15:00,44.4,23.3,28.35,WSW,248,2.5,2.5,43,0.00,,---,0.00,VWS V14.01,2013-02-26 23:15:00,
2013-02-26 15:20:00,45.3,23.0,28.35,WSW,248,0.0,0.0,41,0.00,,---,0.00,VWS V14.01,2013-02-26 23:20:00,
2013-02-26 15:25:00,45.5,23.8,28.35,SSW,202,1.3,1.3,42,0.00,,---,0.00,VWS V14.01,2013-02-26 23:25:00,
2013-02-26 15:30:00,45.5,24.3,28.35,SW,225,0.0,0.0,43,0.00,,---,0.00,VWS V14.01,2013-02-26 23:30:00,
2013-02-26 15:35:00,45.5,23.8,28.35,SW,225,0.9,0.9,42,0.00,,---,0.00,VWS V14.01,2013-02-26 23:35:00,
2013-02-26 15:40:00,45.1,23.4,28.35,WSW,248,0.0,0.0,42,0.00,,---,0.00,VWS V14.01,2013-02-26 23:40:00,
2013-02-26 15:45:00,45.1,23.4,28.35,SSW,202,0.0,0.0,42,0.00,,---,0.00,VWS V14.01,2013-02-26 23:45:00,
2013-02-26 15:50:00,45.3,23.6,28.35,SW,225,1.3,1.3,42,0.00,,---,0.00,VWS V14.01,2013-02-26 23:50:00,
2013-02-26 15:55:00,45.5,23.8,28.35,SW,225,2.0,2.5,42,0.00,,---,0.00,VWS V14.01,2013-02-26 23:55:00,
2013-02-26 16:00:00,45.3,23.0,28.35,WSW,248,0.9,2.5,41,0.00,,---,0.00,VWS V14.01,2013-02-27 00:00:00,
2013-02-26 16:05:00,44.8,23.7,28.35,WSW,248,2.2,2.2,43,0.00,,---,0.00,VWS V14.01,2013-02-27 00:05:00,
2013-02-26 16:10:00,44.6,22.9,28.35,WSW,248,1.6,1.6,42,0.00,,---,0.00,VWS V14.01,2013-02-27 00:10:00,
2013-02-26 16:15:00,44.1,23.0,28.35,SW,225,0.0,0.0,43,0.00,,---,0.00,VWS V14.01,2013-02-27 00:15:00,
2013-02-26 16:20:00,43.0,22.6,28.35,SW,225,0.0,1.6,44,0.00,,---,0.00,VWS V14.01,2013-02-27 00:20:00,
2013-02-26 16:25:00,42.4,23.6,28.35,WSW,248,0.0,0.0,47,0.00,,---,0.00,VWS V14.01,2013-02-27 00:25:00,
2013-02-26 16:30:00,42.3,22.5,28.35,SW,225,0.0,2.0,45,0.00,,---,0.00,VWS V14.01,2013-02-27 00:30:00,
2013-02-26 16:36:00,41.9,23.2,28.35,WSW,248,1.3,1.3,47,0.00,,---,0.00,VWS V14.01,2013-02-27 00:36:00,
2013-02-26 16:41:00,41.2,23.5,28.35,WSW,248,1.1,2.0,49,0.00,,---,0.00,VWS V14.01,2013-02-27 00:41:00,
2013-02-26 16:46:00,40.5,23.3,28.35,WSW,248,0.0,0.0,50,0.00,,---,0.00,VWS V14.01,2013-02-27 00:46:00,
2013-02-26 16:51:00,39.9,23.3,28.35,SW,225,0.0,2.0,51,0.00,,---,0.00,VWS V14.01,2013-02-27 00:51:00,
2013-02-26 16:56:00,39.2,23.1,28.35,WSW,248,0.0,0.0,52,0.00,,---,0.00,VWS V14.01,2013-02-27 00:56:00,
2013-02-26 17:01:00,38.5,22.9,28.32,WSW,248,0.0,0.0,53,0.00,,---,0.00,VWS V14.01,2013-02-27 01:01:00,
2013-02-26 17:06:00,37.9,22.4,28.32,WSW,248,0.0,0.0,53,0.00,,---,0.00,VWS V14.01,2013-02-27 01:06:00,
2013-02-26 17:11:00,37.8,23.1,28.32,SSW,202,0.0,0.0,55,0.00,,---,0.00,VWS V14.01,2013-02-27 01:11:00,
2013-02-26 17:16:00,37.2,23.8,28.35,WSW,248,0.0,0.0,58,0.00,,---,0.00,VWS V14.01,2013-02-27 01:16:00,
2013-02-26 17:21:00,37.0,23.2,28.35,WSW,248,0.0,0.0,57,0.00,,---,0.00,VWS V14.01,2013-02-27 01:21:00,
2013-02-26 17:26:00,36.7,24.1,28.35,WSW,248,0.0,0.0,60,0.00,,---,0.00,VWS V14.01,2013-02-27 01:26:00,
2013-02-26 17:31:00,36.5,22.7,28.35,WSW,248,0.0,0.0,57,0.00,,---,0.00,VWS V14.01,2013-02-27 01:31:00,
2013-02-26 17:36:00,36.1,24.4,28.35,WSW,248,0.0,0.0,62,0.00,,---,0.00,VWS V14.01,2013-02-27 01:36:00,
2013-02-26 17:41:00,36.0,23.4,28.35,WSW,248,0.0,0.0,60,0.00,,---,0.00,VWS V14.01,2013-02-27 01:41:00,
2013-02-26 17:46:00,35.8,23.3,28.35,WSW,248,0.0,0.0,60,0.00,,---,0.00,VWS V14.01,2013-02-27 01:46:00,
2013-02-26 17:51:00,35.6,24.3,28.35,WSW,248,0.0,0.0,63,0.00,,---,0.00,VWS V14.01,2013-02-27 01:51:00,
2013-02-26 17:56:00,35.4,23.7,28.35,WSW,248,0.0,0.0,62,0.00,,---,0.00,VWS V14.01,2013-02-27 01:56:00,
2013-02-26 18:01:00,35.4,24.1,28.35,WSW,248,0.0,0.0,63,0.00,,---,0.00,VWS V14.01,2013-02-27 02:01:00,
2013-02-26 18:06:00,35.2,23.9,28.35,WSW,248,0.0,0.0,63,0.00,,---,0.00,VWS V14.01,2013-02-27 02:06:00,
2013-02-26 18:11:00,35.1,24.5,28.35,WSW,248,0.0,0.0,65,0.00,,---,0.00,VWS V14.01,2013-02-27 02:11:00,
2013-02-26 18:16:00,35.1,25.6,28.35,WSW,248,0.0,0.0,68,0.00,,---,0.00,VWS V14.01,2013-02-27 02:16:00,
2013-02-26 18:21:00,35.1,24.5,28.35,WSW,248,0.0,0.0,65,0.00,,---,0.00,VWS V14.01,2013-02-27 02:21:00,
2013-02-26 18:26:00,34.9,24.3,28.35,WSW,248,0.0,0.0,65,0.00,,---,0.00,VWS V14.01,2013-02-27 02:26:00,
2013-02-26 18:31:00,34.7,24.1,28.35,WSW,248,0.0,0.0,65,0.00,,---,0.00,VWS V14.01,2013-02-27 02:31:00,
2013-02-26 18:36:00,34.5,24.4,28.35,WSW,248,0.0,0.0,66,0.00,,---,0.00,VWS V14.01,2013-02-27 02:36:00,
2013-02-26 18:41:00,34.5,25.1,28.35,WSW,248,0.0,0.0,68,0.00,,---,0.00,VWS V14.01,2013-02-27 02:41:00,
2013-02-26 18:46:00,34.3,24.9,28.35,WSW,248,0.0,0.0,68,0.00,,---,0.00,VWS V14.01,2013-02-27 02:46:00,
2013-02-26 18:51:00,34.3,24.9,28.35,WSW,248,0.0,0.0,68,0.00,,---,0.00,VWS V14.01,2013-02-27 02:51:00,
2013-02-26 18:56:00,34.2,24.7,28.35,WSW,248,0.0,0.0,68,0.00,,---,0.00,VWS V14.01,2013-02-27 02:56:00,
2013-02-26 19:01:00,34.0,24.5,28.35,WSW,248,0.0,0.0,68,0.00,,---,0.00,VWS V14.01,2013-02-27 03:01:00,
2013-02-26 19:06:00,34.0,24.5,28.35,WSW,248,0.0,0.0,68,0.00,,---,0.00,VWS V14.01,2013-02-27 03:06:00,
2013-02-26 19:11:00,34.0,24.9,28.35,WSW,248,0.0,0.0,69,0.00,,---,0.00,VWS V14.01,2013-02-27 03:11:00,
2013-02-26 19:16:00,34.0,25.2,28.35,WSW,248,0.0,0.0,70,0.00,,---,0.00,VWS V14.01,2013-02-27 03:16:00,
2013-02-26 19:21:00,33.8,25.1,28.35,WSW,248,0.0,0.0,70,0.00,,---,0.00,VWS V14.01,2013-02-27 03:21:00,
2013-02-26 19:26:00,33.8,25.1,28.35,WSW,248,0.0,0.0,70,0.00,,---,0.00,VWS V14.01,2013-02-27 03:26:00,
2013-02-26 19:31:00,33.8,25.4,28.35,WSW,248,0.0,0.0,71,0.00,,---,0.00,VWS V14.01,2013-02-27 03:31:00,
2013-02-26 19:36:00,33.8,25.4,28.35,WSW,248,0.0,0.0,71,0.00,,---,0.00,VWS V14.01,2013-02-27 03:36:00,
2013-02-26 19:41:00,33.8,25.4,28.35,WSW,248,0.0,0.0,71,0.00,,---,0.00,VWS V14.01,2013-02-27 03:41:00,
2013-02-26 19:46:00,34.0,25.6,28.35,WSW,248,0.0,0.0,71,0.00,,---,0.00,VWS V14.01,2013-02-27 03:46:00,
2013-02-26 19:51:00,34.0,25.9,28.35,WSW,248,0.0,0.0,72,0.00,,---,0.00,VWS V14.01,2013-02-27 03:51:00,
2013-02-26 19:56:00,33.8,25.7,28.35,WSW,248,0.0,0.0,72,0.00,,---,0.00,VWS V14.01,2013-02-27 03:56:00,
2013-02-26 20:01:00,33.8,26.1,28.35,WSW,248,0.0,0.0,73,0.00,,---,0.00,VWS V14.01,2013-02-27 04:01:00,
2013-02-26 20:06:00,33.8,25.7,28.35,WSW,248,0.0,0.0,72,0.00,,---,0.00,VWS V14.01,2013-02-27 04:06:00,
2013-02-26 20:11:00,34.0,26.2,28.35,WSW,248,0.0,0.0,73,0.00,,---,0.00,VWS V14.01,2013-02-27 04:11:00,
2013-02-26 20:16:00,33.8,26.1,28.35,WSW,248,0.0,0.0,73,0.00,,---,0.00,VWS V14.01,2013-02-27 04:16:00,
2013-02-26 20:22:00,33.8,26.1,28.35,WSW,248,0.0,0.0,73,0.00,,---,0.00,VWS V14.01,2013-02-27 04:22:00,
2013-02-26 20:27:00,33.8,26.4,28.35,WSW,248,0.0,0.0,74,0.00,,---,0.00,VWS V14.01,2013-02-27 04:27:00,
2013-02-26 20:32:00,33.6,26.2,28.35,WSW,248,0.0,0.0,74,0.00,,---,0.00,VWS V14.01,2013-02-27 04:32:00,
2013-02-26 20:37:00,33.6,26.2,28.35,WSW,248,0.0,0.0,74,0.00,,---,0.00,VWS V14.01,2013-02-27 04:37:00,
2013-02-26 20:42:00,33.6,26.2,28.35,WSW,248,0.0,0.0,74,0.00,,---,0.00,VWS V14.01,2013-02-27 04:42:00,
2013-02-26 20:47:00,33.6,26.2,28.35,WSW,248,0.0,0.0,74,0.00,,---,0.00,VWS V14.01,2013-02-27 04:47:00,
2013-02-26 20:52:00,33.6,26.6,28.35,WSW,248,0.0,0.0,75,0.00,,---,0.00,VWS V14.01,2013-02-27 04:52:00,
2013-02-26 20:57:00,33.6,26.6,28.35,WSW,248,0.0,0.0,75,0.00,,---,0.00,VWS V14.01,2013-02-27 04:57:00,
2013-02-26 21:00:00,33.6,26.6,28.35,WSW,248,0.0,0.0,75,0.00,,---,0.00,VWS V14.01,2013-02-27 05:00:00,
2013-02-26 21:05:00,33.4,26.4,28.35,WSW,248,0.0,0.0,75,0.00,,---,0.00,VWS V14.01,2013-02-27 05:05:00,
2013-02-26 21:10:00,33.3,26.2,28.35,WSW,248,0.0,0.0,75,0.00,,---,0.00,VWS V14.01,2013-02-27 05:10:00,
2013-02-26 21:15:00,33.3,26.2,28.35,WSW,248,0.0,0.0,75,0.00,,---,0.00,VWS V14.01,2013-02-27 05:15:00,
2013-02-26 21:20:00,33.1,26.0,28.35,WSW,248,0.0,0.0,75,0.00,,---,0.00,VWS V14.01,2013-02-27 05:20:00,
2013-02-26 21:25:00,33.3,26.2,28.35,WSW,248,0.0,0.0,75,0.00,,---,0.00,VWS V14.01,2013-02-27 05:25:00,
2013-02-26 21:30:00,33.3,26.2,28.32,WSW,248,0.0,0.0,75,0.00,,---,0.00,VWS V14.01,2013-02-27 05:30:00,
2013-02-26 21:35:00,33.3,26.2,28.32,WSW,248,0.0,0.0,75,0.00,,---,0.00,VWS V14.01,2013-02-27 05:35:00,
2013-02-26 21:40:00,33.3,26.2,28.32,WSW,248,0.0,0.0,75,0.00,,---,0.00,VWS V14.01,2013-02-27 05:40:00,
2013-02-26 21:45:00,33.3,26.5,28.35,WSW,248,0.0,0.0,76,0.00,,---,0.00,VWS V14.01,2013-02-27 05:45:00,
2013-02-26 21:50:00,33.1,26.4,28.35,WSW,248,0.0,0.0,76,0.00,,---,0.00,VWS V14.01,2013-02-27 05:50:00,
2013-02-26 21:55:00,33.1,26.4,28.35,WSW,248,0.0,0.0,76,0.00,,---,0.00,VWS V14.01,2013-02-27 05:55:00,
2013-02-26 22:00:00,33.1,26.4,28.35,WSW,248,0.0,0.0,76,0.00,,---,0.00,VWS V14.01,2013-02-27 06:00:00,
2013-02-26 22:05:00,33.1,26.4,28.35,WSW,248,0.0,0.0,76,0.00,,---,0.00,VWS V14.01,2013-02-27 06:05:00,
2013-02-26 22:10:00,33.1,26.4,28.35,WSW,248,0.0,0.0,76,0.00,,---,0.00,VWS V14.01,2013-02-27 06:10:00,
2013-02-26 22:16:00,32.9,26.2,28.35,WSW,248,0.0,0.0,76,0.00,,---,0.00,VWS V14.01,2013-02-27 06:16:00,
2013-02-26 22:21:00,32.7,26.0,28.35,WSW,248,0.0,0.0,76,0.00,,---,0.00,VWS V14.01,2013-02-27 06:21:00,
2013-02-26 22:26:00,32.7,26.3,28.35,WSW,248,0.0,0.0,77,0.00,,---,0.00,VWS V14.01,2013-02-27 06:26:00,
2013-02-26 22:31:00,32.7,26.3,28.35,WSW,248,0.0,0.0,77,0.00,,---,0.00,VWS V14.01,2013-02-27 06:31:00,
2013-02-26 22:36:00,32.5,25.8,28.35,WSW,248,0.0,0.0,76,0.00,,---,0.00,VWS V14.01,2013-02-27 06:36:00,
2013-02-26 22:41:00,32.7,26.3,28.35,WSW,248,0.0,0.0,77,0.00,,---,0.00,VWS V14.01,2013-02-27 06:41:00,
2013-02-26 22:46:00,32.7,26.3,28.35,WSW,248,0.0,0.0,77,0.00,,---,0.00,VWS V14.01,2013-02-27 06:46:00,
2013-02-26 22:51:00,32.7,26.3,28.35,WSW,248,0.0,0.0,77,0.00,,---,0.00,VWS V14.01,2013-02-27 06:51:00,
2013-02-26 22:56:00,32.7,26.3,28.35,WSW,248,0.0,0.0,77,0.00,,---,0.00,VWS V14.01,2013-02-27 06:56:00,
2013-02-26 23:01:00,32.5,26.1,28.35,WSW,248,0.0,0.0,77,0.00,,---,0.00,VWS V14.01,2013-02-27 07:01:00,
2013-02-26 23:06:00,32.4,26.0,28.35,WSW,248,0.0,0.0,77,0.00,,---,0.00,VWS V14.01,2013-02-27 07:06:00,
2013-02-26 23:11:00,32.4,26.0,28.35,WSW,248,0.0,0.0,77,0.00,,---,0.00,VWS V14.01,2013-02-27 07:11:00,
2013-02-26 23:16:00,32.2,25.8,28.35,West,270,0.0,0.0,77,0.00,,---,0.00,VWS V14.01,2013-02-27 07:16:00,
2013-02-26 23:21:00,31.8,25.8,28.35,West,270,0.0,0.0,78,0.00,,---,0.00,VWS V14.01,2013-02-27 07:21:00,
2013-02-26 23:26:00,31.6,25.6,28.35,West,270,0.0,0.0,78,0.00,,---,0.00,VWS V14.01,2013-02-27 07:26:00,
2013-02-26 23:31:00,31.5,25.4,28.32,West,270,0.0,0.0,78,0.00,,---,0.00,VWS V14.01,2013-02-27 07:31:00,
2013-02-26 23:36:00,31.1,25.0,28.32,West,270,0.0,0.0,78,0.00,,---,0.00,VWS V14.01,2013-02-27 07:36:00,
2013-02-26 23:41:00,31.1,25.4,28.32,West,270,0.0,0.0,79,0.00,,---,0.00,VWS V14.01,2013-02-27 07:41:00,
2013-02-26 23:46:00,31.1,25.0,28.32,West,270,0.0,0.0,78,0.00,,---,0.00,VWS V14.01,2013-02-27 07:46:00,
2013-02-26 23:51:00,30.9,24.9,28.32,West,270,0.0,0.0,78,0.00,,---,0.00,VWS V14.01,2013-02-27 07:51:00,
2013-02-26 23:56:00,30.7,25.0,28.32,West,270,0.0,0.0,79,0.00,,---,0.00,VWS V14.01,2013-02-27 07:56:00,